This demonstration page uses our WeatherBlox Daily Observations layout. Learn more.

Left ArrowRight Arrow

39.51506, -84.39828

Hourly Observations for June 4, 2022

Temp ( °F °C ) Dew Point ( °F °C ) Humidity (%) Winds ( mph kmh ) Pressure ( in mb ) Visibility ( mi km ) Precip ( " mm )
12:15 am 00:15 Clear 57 14 55 12.8 93 93 Calm 29.95 1014 10 16 0.00 0.00
12:35 am 00:35 Clear 58 14.2 56 13.1 93 93 SW 3 6 29.95 1014 10 16 0.00 0.00
12:55 am 00:55 Clear 57 13.8 55 12.9 94 94 Calm 29.96 1015 10 16 0.00 0.00
1:15 am 01:15 Clear 55 13 54 12.4 96 96 N 5 7 29.97 1015 10 16 0.00 0.00
1:35 am 01:35 Clear 56 13.2 54 12.3 94 94 N 5 7 29.97 1015 10 16 0.00 0.00
1:55 am 01:55 Clear 55 12.5 54 12 97 97 Calm 29.97 1015 10 16 0.00 0.00
2:15 am 02:15 Clear 53 11.9 53 11.5 97 97 Calm 29.97 1015 10 16 0.00 0.00
2:35 am 02:35 Clear 52 11 54 12 100 100 Calm 29.97 1015 10 16 0.00 0.00
2:55 am 02:55 Clear 52 11 N/A N/A Calm 29.97 1015 10 16 0.00 0.00
3:15 am 03:15 Clear 54 12 N/A N/A Calm 29.96 1015 10 16 0.00 0.00
3:35 am 03:35 Clear 54 12 N/A N/A NNW 3 6 29.96 1015 10 16 0.00 0.00
3:55 am 03:55 Clear 52 11 52 11 100 100 NNE 3 6 29.97 1015 10 16 0.00 0.00
4:15 am 04:15 Clear 52 11 52 11 100 100 NNW 6 9 29.98 1015 10 16 0.00 0.00
4:35 am 04:35 Clear 52 11 52 11 100 100 Calm 29.98 1015 10 16 0.00 0.00
4:55 am 04:55 Clear 52 11 N/A N/A NE 3 6 29.98 1015 10 16 0.00 0.00
5:15 am 05:15 Clear 50 10 N/A N/A N 3 6 29.99 1016 10 16 0.00 0.00
5:35 am 05:35 Clear 50 10 N/A N/A NNW 5 7 29.99 1016 10 16 0.00 0.00
5:55 am 05:55 Clear 52 11 N/A N/A N 3 6 30.00 1016 10 16 0.00 0.00
6:15 am 06:15 Sunny 51 10.8 51 10.7 99 99 Calm 30.00 1016 10 16 0.00 0.00
6:35 am 06:35 Sunny 50 10 50 10 100 100 Calm 30.00 1016 10 16 0.00 0.00
6:55 am 06:55 Sunny 52 11 N/A N/A Calm 30.01 1016 10 16 0.00 0.00
7:15 am 07:15 Sunny 54 12 N/A N/A Calm 30.00 1016 10 16 0.00 0.00
7:35 am 07:35 Sunny 55 12.8 55 12.7 99 99 Calm 30.00 1016 10 16 0.00 0.00
7:55 am 07:55 Sunny 57 14.1 56 13.4 96 96 NNW 6 9 30.00 1016 10 16 0.00 0.00
8:15 am 08:15 Sunny 60 15.4 56 13.3 87 87 Calm 30.01 1016 10 16 0.00 0.00
8:35 am 08:35 Sunny 62 16.8 54 12.2 74 74 NE 5 7 30.00 1016 10 16 0.00 0.00
8:55 am 08:55 Sunny 64 17.6 52 11.2 66 66 Calm 30.01 1016 10 16 0.00 0.00
9:15 am 09:15 Sunny 65 18.5 51 10.4 59 59 NE 3 6 30.02 1017 10 16 0.00 0.00
9:35 am 09:35 Sunny 67 19.3 51 10.4 57 57 NNE 3 6 30.02 1016 10 16 0.00 0.00
9:55 am 09:55 Sunny 68 19.8 50 10.2 54 54 ENE 5 7 30.01 1016 10 16 0.00 0.00
10:15 am 10:15 Sunny 70 21.2 49 9.3 47 47 Calm 30.00 1016 10 16 0.00 0.00
10:35 am 10:35 Sunny 72 22.4 46 7.7 39 39 E 8 13 29.99 1016 7 11 0.00 0.00
10:55 am 10:55 Sunny 73 22.8 46 7.9 39 39 ENE 10 17 29.99 1016 10 16 0.00 0.00
11:15 am 11:15 Sunny 74 23.3 48 9.1 41 41 ENE 9 15 29.99 1015 10 16 0.00 0.00
11:35 am 11:35 Sunny 75 23.8 47 8.4 37 37 E 9 15 29.98 1015 10 16 0.00 0.00
11:55 am 11:55 Sunny 76 24.4 47 8.4 36 36 NE 7 11 29.97 1015 10 16 0.00 0.00
12:15 pm 12:15 Sunny 76 24.6 46 7.8 34 34 ESE 6 9 29.97 1015 10 16 0.00 0.00
12:35 pm 12:35 Sunny 77 25 47 8.2 34 34 NE 9 15 29.97 1015 10 16 0.00 0.00
12:55 pm 12:55 Sunny 77 25 46 7.5 33 33 E 5 7 29.97 1015 10 16 0.00 0.00
1:15 pm 13:15 Sunny 77 25.2 49 9.4 37 37 NE 8 13 29.96 1015 10 16 0.00 0.00
1:35 pm 13:35 Sunny 78 25.3 46 7.7 33 33 NNE 6 9 29.96 1015 10 16 0.00 0.00
1:55 pm 13:55 Sunny 78 25.8 47 8.5 33 33 ENE 5 7 29.96 1015 10 16 0.00 0.00
2:15 pm 14:15 Sunny 79 25.9 45 7.1 30 30 NE 6 9 29.95 1014 10 16 0.00 0.00
2:35 pm 14:35 Sunny 79 26.1 43 5.9 27 27 Calm 29.94 1014 10 16 0.00 0.00
2:55 pm 14:55 Sunny 80 26.7 44 6.4 27 27 E 5 7 29.93 1014 10 16 0.00 0.00
3:15 pm 15:15 Sunny 80 26.6 45 7.1 29 29 W 5 7 29.93 1014 10 16 0.00 0.00
3:35 pm 15:35 Sunny 80 26.7 42 5.4 26 26 SSW 5 7 29.92 1013 10 16 0.00 0.00
3:55 pm 15:55 Sunny 81 27.1 44 6.9 28 28 SSE 5 7 29.92 1013 10 16 0.00 0.00
4:15 pm 16:15 Sunny 80 26.9 41 5.1 25 25 E 5 7 29.92 1013 10 16 0.00 0.00
4:35 pm 16:35 Sunny 80 26.9 44 6.4 27 27 WNW 3 6 29.91 1013 10 16 0.00 0.00
4:55 pm 16:55 Sunny 80 26.9 42 5.3 25 25 WNW 5 7 29.91 1013 10 16 0.00 0.00
5:15 pm 17:15 Sunny 81 27.2 43 5.9 26 26 ENE 3 6 29.91 1013 10 16 0.00 0.00
5:35 pm 17:35 Sunny 80 26.8 41 4.8 24 24 NE 3 6 29.91 1013 10 16 0.00 0.00
5:55 pm 17:55 Sunny 80 26.8 40 4.7 24 24 NNW 3 6 29.91 1013 10 16 0.00 0.00
6:15 pm 18:15 Sunny 80 26.8 40 4.7 24 24 N 3 6 29.91 1013 10 16 0.00 0.00
6:35 pm 18:35 Sunny 80 26.8 41 4.8 24 24 NNW 3 6 29.90 1012 10 16 0.00 0.00
6:55 pm 18:55 Sunny 80 26.7 36 2.1 20 20 Calm 29.90 1013 10 16 0.00 0.00
7:15 pm 19:15 Sunny 80 26.4 38 3.6 23 23 Calm 29.90 1013 10 16 0.00 0.00
7:35 pm 19:35 Sunny 78 25.8 49 9.4 36 36 N 3 6 29.89 1012 10 16 0.00 0.00
7:55 pm 19:55 Sunny 78 25.7 47 8.5 34 34 Calm 29.89 1012 10 16 0.00 0.00
8:15 pm 20:15 Sunny 73 22.5 59 14.8 62 62 Calm 29.90 1012 10 16 0.00 0.00
8:35 pm 20:35 Sunny 69 20.6 59 15.1 71 71 NNW 5 7 29.90 1013 10 16 0.00 0.00
8:55 pm 20:55 Sunny 68 19.9 55 12.8 64 64 N 6 9 29.90 1013 10 16 0.00 0.00
9:15 pm 21:15 Clear 66 18.8 54 12.1 65 65 Calm 29.91 1013 10 16 0.00 0.00
9:35 pm 21:35 Clear 66 18.9 53 11.4 62 62 N 5 7 29.91 1013 10 16 0.00 0.00
9:55 pm 21:55 Clear 64 18 54 12.4 70 70 Calm 29.92 1013 7 11 0.00 0.00
10:15 pm 22:15 Clear 62 16.8 53 11.8 73 73 N 3 6 29.92 1013 10 16 0.00 0.00
10:35 pm 22:35 Clear 59 15 54 12.4 85 85 Calm 29.93 1013 10 16 0.00 0.00
10:55 pm 22:55 Clear 61 16 52 11.3 74 74 NNW 3 6 29.92 1013 10 16 0.00 0.00
11:15 pm 23:15 Clear 58 14.5 52 11.1 80 80 N 5 7 29.93 1013 10 16 0.00 0.00
11:35 pm 23:35 Clear 59 14.9 52 11 78 78 N 7 11 29.93 1013 10 16 0.00 0.00
11:55 pm 23:55 Clear 60 15.7 49 9.7 68 68 N 6 9 29.92 1013 10 16 0.00 0.00

Powered by AerisWeather